Regional Weather Roundup
Issued by NWS

Home | Current Version | Previous Version | Text Only | Print | Product List | Glossary On
Versions: 1 2 3 4 5 6 7 8 9 10 11 12 13 14 15 16 17 18 19 20 21 22 23 24 25 26 27 28 29 30 31 32 33 34 35 36 37 38 39 40 41 42 43 44 45 46 47 48 49 50
000
ASUS43 KLSX 161207
RWRMO

WEATHER SUMMARY FOR MISSOURI
NATIONAL WEATHER SERVICE SPRINGFIELD MO
600 AM CST SAT DEC 16 2017

NOTE: "FAIR" INDICATES FEW OR NO CLOUDS BELOW 12,000 FEET WITH NO
       SIGNIFICANT WEATHER AND/OR OBSTRUCTIONS TO VISIBILITY.
       CURRENT SKY AND/OR WEATHER CONDITIONS ARE NOT AVAILABLE FOR
       CHILLICOTHE AND FARMINGTON.

MOZ001>031-035>038-043-044-053-054-161300-
...NORTHERN AND WESTERN MISSOURI...

CITY           SKY/WX    TMP DP  RH WIND       PRES   REMARKS
KANSAS CTY INT CLEAR     36  24  62 SW14      29.85S WCI  27
6HR MIN TEMP:  35; 6HR MAX TEMP:  40;

KANSAS C DTWN  CLEAR     42  24  49 SW9       29.87S
6HR MIN TEMP:  41; 6HR MAX TEMP:  45;

LEE`S SUMMIT   CLEAR     39  24  55 SW17      29.87F WCI  30
6HR MIN TEMP:  39; 6HR MAX TEMP:  40;

CHILLICOTHE      N/A     35  23  61 S9        29.85S WCI  28
6HR MIN TEMP:  33; 6HR MAX TEMP:  36;

KIRKSVILLE     CLEAR     36  27  69 SW14      29.84S WCI  27
6HR MIN TEMP:  36; 6HR MAX TEMP:  39;


$$
MOZ066>068-077>081-088>096-101>105-161300-
...SOUTHWEST MISSOURI...

CITY           SKY/WX    TMP DP  RH WIND       PRES   REMARKS
SPRINGFIELD    CLOUDY    33  25  72 S12       30.00S WCI  24
6HR MIN TEMP:  30; 6HR MAX TEMP:  33;

JOPLIN         CLEAR     39  25  57 S16G25    29.99S
6HR MIN TEMP:  38; 6HR MAX TEMP:  41;

BRANSON        CLOUDY    37  21  52 CALM      30.06R

$$
MOZ032>034-039>042-045>050-055>058-069>072-161300-
...CENTRAL MISSOURI...

CITY           SKY/WX    TMP DP  RH WIND       PRES   REMARKS
COLUMBIA       CLEAR     32  24  72 S9        29.93S WCI  24
6HR MIN TEMP:  32; 6HR MAX TEMP:  38;

JEFFERSON CITY CLEAR     37  24  59 SE3       29.96F
6HR MIN TEMP:  34; 6HR MAX TEMP:  37;

ROLLA          CLEAR     33  25  72 S15       29.98F WCI  23
6HR MIN TEMP:  32; 6HR MAX TEMP:  34;

SEDALIA        CLEAR     41  26  55 SW20G26   29.92S
6HR MIN TEMP:  40; 6HR MAX TEMP:  41;

WHITEMAN AFB   CLEAR     38  24  56 SW16G25   29.87R WCI  29
WARRENSBURG    CLEAR     37  25  60 S9        29.91R
OSAGE BEACH    CLEAR     38  24  57 SW10      29.98F

$$
MOZ051-052-059>065-161300-
...EAST CENTRAL MISSOURI...

CITY           SKY/WX    TMP DP  RH WIND       PRES   REMARKS
ST LOUIS INTL  CLEAR     39  25  57 SW16      29.97F
6HR MIN TEMP:  36; 6HR MAX TEMP:  39;

SPIRIT OF STL  CLEAR     40  25  55 SW9       29.97F
6HR MIN TEMP:  27; 6HR MAX TEMP:  40;

ST CHARLES     CLEAR     24  20  84 E5        29.98S WCI  18
6HR MIN TEMP:  22; 6HR MAX TEMP:  31;


$$
MOZ072>076-082>087-097>100-106>115-161300-
...SOUTH CENTRAL AND SOUTHEAST MISSOURI...

CITY           SKY/WX    TMP DP  RH WIND       PRES   REMARKS
CAPE GIRARDEAU CLEAR     28  24  85 S3        30.11S
6HR MIN TEMP:  27; 6HR MAX TEMP:  33;

FARMINGTON     CLEAR     33  26  75 S6        30.05S WCI  28
6HR MIN TEMP:  28; 6HR MAX TEMP:  33;

POPLAR BLUFF   CLOUDY    31  27  85 S5        30.12R WCI  26
6HR MIN TEMP:  30; 6HR MAX TEMP:  33;

WEST PLAINS    CLOUDY    31  25  78 SW6       30.07S WCI  25
6HR MIN TEMP:  30; 6HR MAX TEMP:  34;


$$



USA.gov is the U.S. government's official web portal to all federal, state and local government web resources and services.